{"data":{"norad_id":69573,"intl_designator":"2026-137B","name":"HULIANWANG DIGUI-170","alt_names":[],"object_type":"PAYLOAD","status":"ACTIVE","operator":null,"country":"PRC","launch_date":"2026-06-17","launch_site_code":"WSC","launch_vehicle":null,"mission":null,"orbit_class":"UNKNOWN","rcs_meters":null,"size_class":null,"mass_kg":null,"dimensions":null,"purposes":[],"wikipedia_slug":null,"has_3d_model":false,"image_url":null,"decayed_at":null,"tle_current":{"epoch":"2026-09-20T00:46:43.406976Z","epoch_age_seconds":69368,"freshness":"FRESH","line1":"1 69573U 26137B   26263.03244684 -.00000076  00000+0  10293-3 0  9990","line2":"2 69573  50.0001 255.8990 0000279 353.8059   6.2810 13.29328271 12959","mean_motion":13.29328271,"eccentricity":2.79e-5,"inclination_deg":50.0001,"raan_deg":255.899,"arg_perigee_deg":353.8059,"mean_anomaly_deg":6.281,"bstar":0.00010293,"rev_number":1295,"period_min":108.32538744676,"perigee_km":1149.0879832507,"apogee_km":1149.5080141236,"semimajor_km":7527.4349986871,"source":"CELESTRAK","updated_at":"2026-09-20T09:00:24.987457Z"}}}